H1 CPF 2 NER 2023 10 1 9 274 01 glonass128 H2 1106401 9128 37867 2023 10 1 0 0 0 2023 10 4 23 45 0 900 1 1 0 0 0 1 H9 10 0 60218 0.00000 0 -6620188.230 -16612675.106 18198853.003 10 0 60218 900.00000 0 -6535059.020 -18721533.225 16045570.287 10 0 60218 1800.00000 0 -6609562.141 -20547513.950 13580630.019 10 0 60218 2700.00000 0 -6802236.989 -22044364.375 10851688.117 10 0 60218 3600.00000 0 -7064463.336 -23176696.099 7911621.502 10 0 60218 4500.00000 0 -7342714.439 -23921341.747 4817511.118 10 0 60218 5400.00000 0 -7581034.070 -24268216.801 1629534.683 10 0 60218 6300.00000 0 -7723632.137 -24220648.335 -1590209.411 10 0 60218 7200.00000 0 -7717487.608 -23795154.800 -4778923.474 10 0 60218 8100.00000 0 -7514846.280 -23020684.532 -7874352.068 10 0 60218 9000.00000 0 -7075504.799 -21937344.153 -10816017.670 10 0 60218 9900.00000 0 -6368781.047 -20594670.308 -13546424.120 10 0 60218 10800.00000 0 -5375084.354 -19049518.267 -16012202.064 10 0 60218 11700.00000 0 -4087016.171 -17363657.716 -18165171.796 10 0 60218 12600.00000 0 -2509952.299 -15601178.895 -19963300.811 10 0 60218 13500.00000 0 -662080.325 -13825820.394 -21371535.887 10 0 60218 14400.00000 0 1426110.366 -12098333.027 -22362492.533 10 0 60218 15300.00000 0 3712864.833 -10473992.351 -22916987.963 10 0 60218 16200.00000 0 6146681.277 -9000365.369 -23024407.451 10 0 60218 17100.00000 0 8668247.702 -7715425.514 -22682897.653 10 0 60218 18000.00000 0 11212714.392 -6646094.479 -21899384.280 10 0 60218 18900.00000 0 13712206.058 -5807270.670 -20689415.243 10 0 60218 19800.00000 0 16098467.773 -5201382.851 -19076833.998 10 0 60218 20700.00000 0 18305533.621 -4818484.999 -17093291.163 10 0 60218 21600.00000 0 20272306.641 -4636885.227 -14777605.658 10 0 60218 22500.00000 0 21944942.959 -4624279.132 -12174989.343 10 0 60218 23400.00000 0 23278941.763 -4739336.864 -9336151.683 10 0 60218 24300.00000 0 24240855.653 -4933674.416 -6316302.960 10 0 60218 25200.00000 0 24809552.171 -5154124.095 -3174076.204 10 0 60218 26100.00000 0 24976976.308 -5345207.082 29610.738 10 0 60218 27000.00000 0 24748384.757 -5451703.277 3232730.867 10 0 60218 27900.00000 0 24142044.548 -5421210.187 6373339.007 10 0 60218 28800.00000 0 23188410.768 -5206583.692 9390755.772 10 0 60218 29700.00000 0 21928819.239 -4768158.972 12226722.769 10 0 60218 30600.00000 0 20413749.594 -4075659.361 14826508.224 10 0 60218 31500.00000 0 18700731.343 -3109714.033 17139943.382 10 0 60218 32400.00000 0 16851979.611 -1862921.618 19122371.569 10 0 60218 33300.00000 0 14931857.748 -340415.345 20735493.489 10 0 60218 34200.00000 0 13004270.724 1440094.384 21948094.165 10 0 60218 35100.00000 0 11130095.703 3448803.113 22736638.903 10 0 60218 36000.00000 0 9364754.581 5644803.033 23085727.769 10 0 60218 36900.00000 0 7756027.584 7977542.723 22988400.131 10 0 60218 37800.00000 0 6342197.408 10388698.331 22446283.173 10 0 60218 38700.00000 0 5150600.259 12814381.721 21469580.545 10 0 60218 39600.00000 0 4196643.994 15187596.996 20076899.824 10 0 60218 40500.00000 0 3483334.748 17440845.991 18294920.104 10 0 60218 41400.00000 0 3001332.888 19508776.497 16157903.727 10 0 60218 42300.00000 0 2729537.400 21330764.091 13707059.123 10 0 60218 43200.00000 0 2636175.784 22853320.209 10989764.694 10 0 60218 44100.00000 0 2680355.180 24032225.223 8058666.696 10 0 60218 45000.00000 0 2814010.511 24834295.771 4970667.110 10 0 60218 45900.00000 0 2984168.008 25238710.196 1785820.253 10 0 60218 46800.00000 0 3135428.213 25237834.051 -1433840.543 10 0 60218 47700.00000 0 3212562.369 24837508.579 -4625522.694 10 0 60218 48600.00000 0 3163110.397 24056787.874 -7726915.546 10 0 60218 49500.00000 0 2939867.887 22927134.304 -10677426.926 10 0 60218 50400.00000 0 2503153.786 21491105.216 -13419388.746 10 0 60218 51300.00000 0 1822759.625 19800586.289 -15899205.813 10 0 60218 52200.00000 0 879494.752 17914646.696 -18068423.219 10 0 60218 53100.00000 0 -333740.390 15897107.761 -19884689.461 10 0 60218 54000.00000 0 -1811400.379 13813929.214 -21312595.017 10 0 60218 54900.00000 0 -3535285.027 11730524.782 -22324369.033 10 0 60218 55800.00000 0 -5475074.757 9709121.626 -22900420.132 10 0 60218 56700.00000 0 -7589388.591 7806275.717 -23029711.011 10 0 60218 57600.00000 0 -9827319.686 6070647.897 -22709960.222 10 0 60218 58500.00000 0 -12130383.054 4541133.671 -21947668.377 10 0 60218 59400.00000 0 -14434792.651 3245423.977 -20757969.697 10 0 60218 60300.00000 0 -16673971.481 2199055.299 -19164313.474 10 0 60218 61200.00000 0 -18781188.776 1404986.328 -17197983.387 10 0 60218 62100.00000 0 -20692213.570 853715.758 -14897465.719 10 0 60218 63000.00000 0 -22347873.861 523932.874 -12307680.368 10 0 60218 63900.00000 0 -23696414.976 383670.202 -9479091.005 10 0 60218 64800.00000 0 -24695559.885 391906.631 -6466712.849 10 0 60218 65700.00000 0 -25314187.020 500550.911 -3329038.088 10 0 60218 66600.00000 0 -25533557.600 656720.018 -126900.395 10 0 60218 67500.00000 0 -25348043.395 805215.208 3077699.446 10 0 60218 68400.00000 0 -24765326.820 891090.945 6222784.311 10 0 60218 69300.00000 0 -23806066.989 862208.725 9247585.587 10 0 60218 70200.00000 0 -22503047.266 671669.044 12093700.315 10 0 60218 71100.00000 0 -20899840.882 280020.251 14706199.733 10 0 60218 72000.00000 0 -19049050.535 -342847.317 17034669.511 10 0 60218 72900.00000 0 -17010194.881 -1216200.466 19034163.492 10 0 60218 73800.00000 0 -14847328.725 -2347417.846 20666054.422 10 0 60218 74700.00000 0 -12626494.190 -3731444.004 21898766.977 10 0 60218 75600.00000 0 -10413106.695 -5350766.386 22708380.397 10 0 60218 76500.00000 0 -8269382.005 -7175917.825 23079090.083 10 0 60218 77400.00000 0 -6251909.085 -9166485.802 23003519.635 10 0 60218 78300.00000 0 -4409467.643 -11272589.342 22482877.085 10 0 60218 79200.00000 0 -2781179.694 -13436765.211 21526951.408 10 0 60218 80100.00000 0 -1395071.309 -15596188.155 20153947.832 10 0 60218 81000.00000 0 -267104.387 -17685135.703 18390163.133 10 0 60218 81900.00000 0 599280.572 -19637597.329 16269504.792 10 0 60218 82800.00000 0 1213090.479 -21389920.782 13832860.849 10 0 60218 83700.00000 0 1595176.148 -22883385.830 11127330.226 10 0 60218 84600.00000 0 1777123.158 -24066597.562 8205326.348 10 0 60218 85500.00000 0 1799682.477 -24897597.805 5123569.893 10 0 60219 0.00000 0 1710806.229 -25345604.135 1941989.607 10 0 60219 900.00000 0 1563371.367 -25392301.172 -1277449.354 10 0 60219 1800.00000 0 1412688.284 -25032626.641 -4471961.843 10 0 60219 2700.00000 0 1313901.119 -24275017.407 -7579184.639 10 0 60219 3600.00000 0 1319392.113 -23141102.267 -10538413.594 10 0 60219 4500.00000 0 1476302.676 -21664853.294 -13291811.351 10 0 60219 5400.00000 0 1824279.155 -19891230.712 -15785559.489 10 0 60219 6300.00000 0 2393541.766 -17874378.487 -17970930.363 10 0 60219 7200.00000 0 3203361.143 -15675447.410 -19805255.719 10 0 60219 8100.00000 0 4261009.168 -13360138.594 -21252771.662 10 0 60219 9000.00000 0 5561230.002 -10996072.248 -22285322.517 10 0 60219 9900.00000 0 7086254.507 -8650093.844 -22882909.395 10 0 60219 10800.00000 0 8806357.645 -6385631.996 -23034073.008 10 0 60219 11700.00000 0 10680934.939 -4260219.603 -22736103.917 10 0 60219 12600.00000 0 12660051.859 -2323282.153 -21995077.267 10 0 60219 13500.00000 0 14686399.857 -614285.042 -20825712.774 10 0 60219 14400.00000 0 16697575.784 838684.160 -19251064.338 10 0 60219 15300.00000 0 18628587.971 2019841.473 -17302047.048 10 0 60219 16200.00000 0 20414483.156 2926104.550 -15016812.501 10 0 60219 17100.00000 0 21992983.916 3566949.724 -12439986.188 10 0 60219 18000.00000 0 23307026.304 3963737.614 -9621783.188 10 0 60219 18900.00000 0 24307092.196 4148539.065 -6617020.524 10 0 60219 19800.00000 0 24953239.994 4162513.880 -3484046.198 10 0 60219 20700.00000 0 25216750.343 4053913.037 -283606.216 10 0 60219 21600.00000 0 25081319.958 3875790.307 2922328.328 10 0 60219 22500.00000 0 24543755.653 3683520.609 6071751.715 10 0 60219 23400.00000 0 23614141.424 3532229.861 9103809.217 10 0 60219 24300.00000 0 22315473.188 3474244.069 11959956.082 10 0 60219 25200.00000 0 20682777.432 3556664.066 14585068.945 10 0 60219 26100.00000 0 18761750.934 3819166.648 16928489.873 10 0 60219 27000.00000 0 16606977.893 4292123.232 18944984.773 10 0 60219 27900.00000 0 14279797.609 4995114.000 20595599.574 10 0 60219 28800.00000 0 11845909.699 5935899.289 21848399.358 10 0 60219 29700.00000 0 9372814.159 7109891.461 22679077.672 10 0 60219 30600.00000 0 6927190.101 8500150.278 23071425.255 10 0 60219 31500.00000 0 4572319.476 10077903.704 23017649.558 10 0 60219 32400.00000 0 2365660.439 11803574.805 22518538.697 10 0 60219 33300.00000 0 356669.219 13628274.862 21583465.821 10 0 60219 34200.00000 0 -1415040.207 15495703.527 20230232.278 10 0 60219 35100.00000 0 -2921122.650 17344379.903 18484750.651 10 0 60219 36000.00000 0 -4145454.911 19110114.124 16380571.398 10 0 60219 36900.00000 0 -5084575.061 20728618.238 13958259.769 10 0 60219 37800.00000 0 -5747588.265 22138148.439 11264632.644 10 0 60219 38700.00000 0 -6155541.710 23282068.168 8351867.947 10 0 60219 39600.00000 0 -6340293.521 24111223.854 5276502.333 10 0 60219 40500.00000 0 -6342922.309 24586031.827 2098335.670 10 0 60219 41400.00000 0 -6211743.939 24678186.314 -1120736.615 10 0 60219 42300.00000 0 -6000019.564 24371913.867 -4317939.997 10 0 60219 43200.00000 0 -5763452.891 23664718.544 -7430861.183 10 0 60219 44100.00000 0 -5557584.394 22567583.815 -10398686.365 10 0 60219 45000.00000 0 -5435195.222 21104620.637 -13163411.016 10 0 60219 45900.00000 0 -5443833.544 19312175.112 -15670995.327 10 0 60219 46800.00000 0 -5623570.980 17237432.753 -17872440.499 10 0 60219 47700.00000 0 -6005086.856 14936578.290 -19724762.845 10 0 60219 48600.00000 0 -6608163.671 12472589.286 -21191845.173 10 0 60219 49500.00000 0 -7440659.139 9912757.498 -22245147.806 10 0 60219 50400.00000 0 -8497999.276 7326043.529 -22864264.923 10 0 60219 51300.00000 0 -9763214.245 4780377.022 -23037315.546 10 0 60219 52200.00000 0 -11207515.115 2340016.430 -22761162.216 10 0 60219 53100.00000 0 -12791386.349 63079.314 -22041454.221 10 0 60219 54000.00000 0 -14466146.810 -2000653.920 -20892495.980 10 0 60219 54900.00000 0 -16175912.257 -3811572.198 -19336944.779 10 0 60219 55800.00000 0 -17859875.477 -5341627.188 -17405345.491 10 0 60219 56700.00000 0 -19454807.176 -6575232.403 -15135513.050 10 0 60219 57600.00000 0 -20897671.907 -7509633.573 -12571776.259 10 0 60219 58500.00000 0 -22128248.962 -8154738.325 -9764099.102 10 0 60219 59400.00000 0 -23091648.584 -8532415.900 -6767097.780 10 0 60219 60300.00000 0 -23740618.770 -8675299.739 -3638973.387 10 0 60219 61200.00000 0 -24037547.197 -8625146.132 -440381.517 10 0 60219 62100.00000 0 -23956075.997 -8430820.283 2766739.189 10 0 60219 63000.00000 0 -23482263.493 -8145996.035 5920357.150 10 0 60219 63900.00000 0 -22615246.011 -7826666.761 8959534.212 10 0 60219 64800.00000 0 -21367373.588 -7528572.131 11825586.437 10 0 60219 65700.00000 0 -19763814.954 -7304648.279 14463198.315 10 0 60219 66600.00000 0 -17841648.771 -7202607.438 16821470.556 10 0 60219 67500.00000 0 -15648478.773 -7262747.356 18854883.103 10 0 60219 68400.00000 0 -13240629.507 -7516081.125 20524156.680 10 0 60219 69300.00000 0 -10680996.082 -7982864.849 21796997.998 10 0 60219 70200.00000 0 -8036635.066 -8671584.401 22648715.696 10 0 60219 71100.00000 0 -5376193.909 -9578443.927 23062696.197 10 0 60219 72000.00000 0 -2767282.887 -10687378.557 23030730.727 10 0 60219 72900.00000 0 -273895.896 -11970592.589 22553187.025 10 0 60219 73800.00000 0 2046015.120 -13389603.156 21639021.593 10 0 60219 74700.00000 0 4142713.130 -14896748.604 20305630.768 10 0 60219 75600.00000 0 5976507.081 -16437101.594 18578541.516 10 0 60219 76500.00000 0 7519165.165 -17950709.781 16490945.569 10 0 60219 77400.00000 0 8754850.923 -19375072.639 14083083.420 10 0 60219 78300.00000 0 9680542.139 -20647752.305 11401487.683 10 0 60219 79200.00000 0 10305913.643 -21709009.628 8498098.319 10 0 60219 80100.00000 0 10652687.537 -22504354.383 5429265.304 10 0 60219 81000.00000 0 10753476.908 -22986901.137 2254657.115 10 0 60219 81900.00000 0 10650170.940 -23119429.483 -963904.001 10 0 60219 82800.00000 0 10391929.405 -22876059.126 -4163656.733 10 0 60219 83700.00000 0 10032871.832 -22243466.206 -7282140.548 10 0 60219 84600.00000 0 9629560.433 -21221586.617 -10258434.704 10 0 60219 85500.00000 0 9238385.341 -19823774.075 -13034370.083 10 0 60220 0.00000 0 8912965.372 -18076404.425 -15555687.675 10 0 60220 900.00000 0 8701676.946 -16017940.623 -17773120.140 10 0 60220 1800.00000 0 8645418.879 -13697499.731 -19643369.994 10 0 60220 2700.00000 0 8775709.434 -11172979.380 -21129968.266 10 0 60220 3600.00000 0 9113198.400 -8508825.510 -22203992.395 10 0 60220 4500.00000 0 9666658.101 -5773535.428 -22844630.306 10 0 60220 5400.00000 0 10432496.380 -3037002.256 -23039579.548 10 0 60220 6300.00000 0 11394811.857 -367813.033 -22785274.417 10 0 60220 7200.00000 0 12525988.215 2169385.820 -22086937.695 10 0 60220 8100.00000 0 13787801.125 4516345.523 -20958457.455 10 0 60220 9000.00000 0 15132989.598 6623392.532 -19422092.967 10 0 60220 9900.00000 0 16507223.922 8451237.202 -17508017.148 10 0 60220 10800.00000 0 17851385.920 9972340.215 -15253706.190 10 0 60220 11700.00000 0 19104064.401 11171782.567 -12703189.828 10 0 60220 12600.00000 0 20204160.167 12047606.026 -9906178.269 10 0 60220 13500.00000 0 21093490.857 12610613.384 -6917083.945 10 0 60220 14400.00000 0 21719286.557 12883640.408 -3793957.898 10 0 60220 15300.00000 0 22036472.179 12900333.235 -597362.054 10 0 60220 16200.00000 0 22009642.075 12703485.278 2610800.670 10 0 60220 17100.00000 0 21614645.526 12343005.489 5768476.005 10 0 60220 18000.00000 0 20839718.264 11873604.618 8814645.344 10 0 60220 18900.00000 0 19686114.020 11352297.087 11690488.253 10 0 60220 19800.00000 0 18168210.784 10835823.130 14340499.439 10 0 60220 20700.00000 0 16313087.905 10378098.527 16713540.251 10 0 60220 21600.00000 0 14159591.554 10027797.657 18763806.291 10 0 60220 22500.00000 0 11756926.659 9826169.769 20451694.338 10 0 60220 23400.00000 0 9162832.378 9805178.652 21744553.614 10 0 60220 24300.00000 0 6441414.763 9986042.639 22617308.367 10 0 60220 25200.00000 0 3660723.927 10378235.659 23052940.837 10 0 60220 26100.00000 0 890173.386 10978991.456 23042825.751 10 0 60220 27000.00000 0 -1802094.295 11773332.822 22586909.774 10 0 60220 27900.00000 0 -4351788.960 12734626.457 21693731.623 10 0 60220 28800.00000 0 -6700896.383 13825642.629 20380281.041 10 0 60220 29700.00000 0 -8799844.721 15000078.066 18671697.384 10 0 60220 30600.00000 0 -10609324.513 16204481.062 16600811.305 10 0 60220 31500.00000 0 -12101686.336 17380500.641 14207535.904 10 0 60220 32400.00000 0 -13261857.059 18467367.333 11538116.699 10 0 60220 33300.00000 0 -14087735.165 19404502.489 8644252.768 10 0 60220 34200.00000 0 -14590047.055 20134146.537 5582104.474 10 0 60220 35100.00000 0 -14791668.925 20603894.682 2411206.018 10 0 60220 36000.00000 0 -14726441.574 20769031.410 -806696.312 10 0 60220 36900.00000 0 -14437527.495 20594562.786 -4008857.085 10 0 60220 37800.00000 0 -13975379.652 20056857.831 -7132771.014 10 0 60220 38700.00000 0 -13395408.650 19144826.521 -10117412.724 10 0 60220 39600.00000 0 -12755448.506 17860581.753 -12904450.570 10 0 60220 40500.00000 0 -12113130.398 16219554.817 -15439408.563 10 0 60220 41400.00000 0 -11523278.034 14250057.658 -17672751.418 10 0 60220 42300.00000 0 -11035437.411 11992309.300 -19560869.538 10 0 60220 43200.00000 0 -10691647.863 9496967.088 -21066943.077 10 0 60220 44100.00000 0 -10524550.553 6823224.825 -22161667.213 10 0 60220 45000.00000 0 -10555915.639 4036558.531 -22823823.952 10 0 60220 45900.00000 0 -10795650.887 1206215.428 -23040689.434 10 0 60220 46800.00000 0 -11241333.331 -1597447.633 -22808269.470 10 0 60220 47700.00000 0 -11878282.850 -4305664.078 -22131359.785 10 0 60220 48600.00000 0 -12680173.078 -6853882.670 -21023431.227 10 0 60220 49500.00000 0 -13610152.071 -9184208.366 -19506343.828 10 0 60220 50400.00000 0 -14622423.520 -11247558.037 -17609896.998 10 0 60220 51300.00000 0 -15664219.980 -13005442.791 -15371226.344 10 0 60220 52200.00000 0 -16678083.351 -14431304.916 -12834060.435 10 0 60220 53100.00000 0 -17604355.341 -15511356.523 -10047853.429 10 0 60220 54000.00000 0 -18383772.339 -16244888.155 -7066811.573 10 0 60220 54900.00000 0 -18960055.360 -16644037.943 -3948833.372 10 0 60220 55800.00000 0 -19282386.477 -16733034.243 -754384.529 10 0 60220 56700.00000 0 -19307668.514 -16546946.513 2454670.340 10 0 60220 57600.00000 0 -19002474.285 -16129999.180 5616256.884 10 0 60220 58500.00000 0 -18344604.908 -15533520.924 8669278.649 10 0 60220 59400.00000 0 -17324193.230 -14813616.288 11554781.285 10 0 60220 60300.00000 0 -15944307.251 -14028657.384 14217072.210 10 0 60220 61200.00000 0 -14221028.966 -13236700.263 16604775.757 10 0 60220 62100.00000 0 -12183005.409 -12492933.097 18671805.304 10 0 60220 63000.00000 0 -9870489.944 -11847261.532 20378235.508 10 0 60220 63900.00000 0 -7333912.379 -11342130.770 21691059.558 10 0 60220 64800.00000 0 -4632035.271 -11010674.090 22584818.367 10 0 60220 65700.00000 0 -1829770.370 -10875264.272 23042090.630 10 0 60220 66600.00000 0 1004257.135 -10946528.140 23053834.792 10 0 60220 67500.00000 0 3800298.638 -11222865.803 22619576.253 10 0 60220 68400.00000 0 6490121.942 -11690495.790 21747435.384 10 0 60220 69300.00000 0 9009593.855 -12324026.017 20453994.422 10 0 60220 70200.00000 0 11301100.239 -13087528.930 18764003.867 10 0 60220 71100.00000 0 13315704.073 -13936078.315 16709931.717 10 0 60220 72000.00000 0 15014951.947 -14817685.753 14331361.779 10 0 60220 72900.00000 0 16372253.190 -15675557.501 11674250.245 10 0 60220 73800.00000 0 17373772.914 -16450578.308 8790052.747 10 0 60220 74700.00000 0 18018800.023 -17083918.204 5734737.170 10 0 60220 75600.00000 0 18319573.116 -17519651.964 2567700.346 10 0 60220 76500.00000 0 18300570.083 -17707279.394 -649390.656 10 0 60220 77400.00000 0 17997290.233 -17604037.817 -3853809.578 10 0 60220 78300.00000 0 17454579.862 -17176906.223 -6983009.628 10 0 60220 79200.00000 0 16724572.227 -16404213.272 -9975863.873 10 0 60220 80100.00000 0 15864330.058 -15276777.979 -12773880.991 10 0 60220 81000.00000 0 14933291.966 -13798532.058 -15322370.351 10 0 60220 81900.00000 0 13990632.899 -11986595.254 -17571531.406 10 0 60220 82800.00000 0 13092652.695 -9870798.858 -19477444.054 10 0 60220 83700.00000 0 12290305.439 -7492676.582 -21002939.035 10 0 60220 84600.00000 0 11626975.996 -4903965.063 -22118330.296 10 0 60220 85500.00000 0 11136599.090 -2164677.471 -22801994.505 10 0 60221 0.00000 0 10842200.997 659167.886 -23040786.527 10 0 60221 900.00000 0 10754925.179 3498069.305 -22830283.427 10 0 60221 1800.00000 0 10873582.411 6281703.510 -22174853.104 10 0 60221 2700.00000 0 11184742.326 8941620.688 -21087548.076 10 0 60221 3600.00000 0 11663360.921 11413856.296 -19589827.672 10 0 60221 4500.00000 0 12273915.077 13641352.558 -17711116.005 10 0 60221 5400.00000 0 12971994.009 15576089.550 -15488205.998 10 0 60221 6300.00000 0 13706278.374 17180838.805 -12964522.664 10 0 60221 7200.00000 0 14420821.854 18430468.670 -10189261.436 10 0 60221 8100.00000 0 15057537.777 19312749.856 -7216419.462 10 0 60221 9000.00000 0 15558785.288 19828630.736 -4103739.582 10 0 60221 9900.00000 0 15869946.048 19991974.085 -911588.033 10 0 60221 10800.00000 0 15941883.444 19828769.372 2298212.157 10 0 60221 11700.00000 0 15733181.721 19375856.177 5463569.770 10 0 60221 12600.00000 0 15212072.125 18679214.229 8523313.561 10 0 60221 13500.00000 0 14357966.416 17791892.948 11418358.066 10 0 60221 14400.00000 0 13162534.583 16771667.681 14092825.905 10 0 60221 15300.00000 0 11630282.416 15678520.504 16495106.550 10 0 60221 16200.00000 0 9778605.030 14572050.043 18578832.943 10 0 60221 17100.00000 0 7637313.679 13508917.262 20303759.025 10 0 60221 18000.00000 0 5247654.454 12540432.311 21636522.993 10 0 60221 18900.00000 0 2660857.809 11710381.580 22551283.068 10 0 60221 19800.00000 0 -63723.323 11053184.294 23030214.627 10 0 60221 20700.00000 0 -2860812.427 10592454.676 23063859.633 10 0 60221 21600.00000 0 -5661657.323 10340029.416 22651321.550 10 0 60221 22500.00000 0 -8396628.675 10295501.450 21800301.253 10 0 60221 23400.00000 0 -10997864.118 10446280.675 20526971.833 10 0 60221 24300.00000 0 -13401850.504 10768180.749 18855692.825 10 0 60221 25200.00000 0 -15551838.508 11226509.492 16818567.045 10 0 60221 26100.00000 0 -17399989.759 11777619.409 14454846.135 10 0 60221 27000.00000 0 -18909166.827 12370855.259 11810193.853 10 0 60221 27900.00000 0 -20054290.373 12950818.398 8935819.156 10 0 60221 28800.00000 0 -20823205.166 13459853.383 5887494.217 10 0 60221 29700.00000 0 -21217016.832 13840652.019 2724475.331 10 0 60221 30600.00000 0 -21249883.380 14038863.955 -491652.666 10 0 60221 31500.00000 0 -20948268.709 14005601.697 -3698185.510 10 0 60221 32400.00000 0 -20349688.572 13699731.553 -6832537.511 10 0 60221 33300.00000 0 -19501001.566 13089850.564 -9833482.550 10 0 60221 34200.00000 0 -18456317.804 12155862.565 -12642371.733 10 0 60221 35100.00000 0 -17274614.815 10890083.617 -15204301.604 10 0 60221 36000.00000 0 -16017163.191 9297827.374 -17469207.826 10 0 60221 36900.00000 0 -14744872.880 7397443.536 -19392860.913 10 0 60221 37800.00000 0 -13515674.478 5219806.372 -20937742.932 10 0 60221 38700.00000 0 -12382048.013 2807274.184 -22073786.966 10 0 60221 39600.00000 0 -11388805.119 212163.481 -22778964.356 10 0 60221 40500.00000 0 -10571218.932 -2505197.495 -23039708.360 10 0 60221 41400.00000 0 -9953580.640 -5278753.455 -22851166.564 10 0 60221 42300.00000 0 -9548242.769 -8039248.266 -22217278.183 10 0 60221 43200.00000 0 -9355187.972 -10716886.205 -21150676.180 10 0 60221 44100.00000 0 -9362139.380 -13244016.591 -19672417.709 10 0 60221 45000.00000 0 -9545205.336 -15557729.659 -17811549.886 10 0 60221 45900.00000 0 -9870028.638 -17602256.003 -15604521.063 10 0 60221 46800.00000 0 -10293389.208 -19331070.734 -13094450.674 10 0 60221 47700.00000 0 -10765190.311 -20708616.413 -10330273.310 10 0 60221 48600.00000 0 -11230742.655 -21711575.319 -7365774.862 10 0 60221 49500.00000 0 -11633248.835 -22329640.716 -4258540.323 10 0 60221 50400.00000 0 -11916382.682 -22565757.885 -1068834.288 10 0 60221 51300.00000 0 -12026854.829 -22435827.814 2141563.993 10 0 60221 52200.00000 0 -11916856.947 -21967888.610 5310548.638 10 0 60221 53100.00000 0 -11546282.704 -21200811.076 8376875.843 10 0 60221 54000.00000 0 -10884633.240 -20182564.566 11281331.272 10 0 60221 54900.00000 0 -9912528.269 -18968126.449 13967854.988 10 0 60221 55800.00000 0 -8622760.382 -17617122.629 16384603.768 10 0 60221 56700.00000 0 -7020848.894 -16191297.025 18484932.161 10 0 60221 57600.00000 0 -5125069.933 -14751914.386 20228275.252 10 0 60221 58500.00000 0 -2965960.705 -13357203.205 21580917.830 10 0 60221 59400.00000 0 -585316.959 -12059943.527 22516636.704 10 0 60221 60300.00000 0 1965276.925 -10905298.454 23017204.873 10 0 60221 61200.00000 0 4626326.975 -9928978.368 23072748.387 10 0 60221 62100.00000 0 7332642.976 -9155813.444 22681948.985 10 0 60221 63000.00000 0 10015797.555 -8598793.777 21852087.897 10 0 60221 63900.00000 0 12606731.969 -8258617.608 20598928.565 10 0 60221 64800.00000 0 15038403.040 -8123767.629 18946438.711 10 0 60221 65700.00000 0 17248363.118 -8171113.779 16926354.772 10 0 60221 66600.00000 0 19181166.757 -8367019.175 14577594.671 10 0 60221 67500.00000 0 20790503.949 -8668904.682 11945527.792 10 0 60221 68400.00000 0 22040970.162 -9027207.996 9081114.098 10 0 60221 69300.00000 0 22909397.672 -9387655.851 6039927.354 10 0 60221 70200.00000 0 23385690.538 -9693753.890 2881080.298 10 0 60221 71100.00000 0 23473126.063 -9889388.530 -333927.744 10 0 60221 72000.00000 0 23188108.112 -9921429.413 -3542417.934 10 0 60221 72900.00000 0 22559381.134 -9742220.133 -6681769.123 10 0 60221 73800.00000 0 21626737.098 -9311849.008 -9690659.346 10 0 60221 74700.00000 0 20439269.743 -8600100.594 -12510285.252 10 0 60221 75600.00000 0 19053250.461 -7588002.159 -15085533.368 10 0 60221 76500.00000 0 17529716.763 -6268896.731 -17366078.027 10 0 60221 77400.00000 0 15931876.932 -4648994.869 -19307382.437 10 0 60221 78300.00000 0 14322442.426 -2747380.048 -20871581.670 10 0 60221 79200.00000 0 12761002.474 -595466.306 -22028229.224 10 0 60221 80100.00000 0 11301553.218 1764069.387 -22754891.979 10 0 60221 81000.00000 0 9990286.516 4278834.920 -23037582.038 10 0 60221 81900.00000 0 8863731.802 6888685.364 -22871017.577 10 0 60221 82800.00000 0 7947328.697 9528016.586 -22258708.711 10 0 60221 83700.00000 0 7254489.038 12128293.207 -21212868.062 10 0 60221 84600.00000 0 6786185.719 14620704.393 -19754149.442 10 0 60221 85500.00000 0 6531083.000 16938836.106 -17911221.423 99